Temperature
14 14 14 15 15 15 15 15 15 15 15 16 16 16 16 17 17 17 17 17 17 17 17 18 18 18 18 18 18 18 18 18 18 18 18 18 18 18 17 17 17 17 17
14 14 14 14 14 14 14 15 15 15 15 15 15 16 16 16 16 17 17 17 17 17 17 17 18 18 18 18 18 18 18 18 18 18 18 18 18 18 17 17 17 17 17
14 14 14 14 14 14 14 14 14 15 15 15 15 16 16 16 16 16 17 17 17 17 17 17 17 17 18 18 18 18 18 18 18 18 18 18 18 18 18 17 17 17 17
14 14 14 14 14 14 14 14 14 14 15 15 15 15 16 16 16 16 16 17 17 17 17 17 17 17 17 18 18 18 18 18 18 18 18 18 18 18 18 17 17 17 17
13 13 13 13 13 13 14 14 14 14 14 15 15 15 15 16 16 16 16 16 16 17 17 17 17 17 17 17 17 18 18 18 18 18 18 18 18 18 17 17 17 17 17
13 13 13 13 13 13 13 14 14 14 14 14 15 15 15 16 16 16 16 16 16 17 17 17 17 17 17 17 17 17 18 18 18 18 18 18 18 18 17 17 17 17 17
13 13 13 13 13 13 13 13 13 14 14 14 15 15 15 15 16 16 16 16 16 16 17 17 17 17 17 17 17 17 17 18 18 17 17 17 17 17 17 17 17 17 17
13 13 13 13 13 13 13 13 13 13 14 14 14 15 15 15 15 16 16 16 16 16 16 17 17 17 17 17 17 17 17 17 17 17 17 17 17 17 17 17 17 17 17
13 13 13 13 13 13 13 13 13 13 14 14 14 14 14 14 15 15 16 16 16 16 16 16 17 17 17 17 17 17 17 17 17 17 17 17 17 17 17 17 17 17 17
13 13 13 13 13 13 13 13 13 13 13 14 14 14 14 14 14 15 15 16 16 16 16 16 16 16 17 17 17 17 17 17 17 17 17 17 17 17 17 17 17 17 17
13 13 13 13 13 13 13 13 13 13 13 13 13 14 14 14 14 14 15 15 15 16 16 16 16 16 16 16 16 17 17 17 17 17 17 17 17 17 17 17 17 17 17
13 13 13 13 13 13 13 13 13 13 13 13 13 13 14 14 14 14 14 15 15 15 15 16 16 16 16 16 16 16 16 17 17 17 17 17 17 17 17 17 17 17 17
13 13 13 13 13 13 13 13 13 13 13 13 13 13 13 13 14 14 14 14 14 15 15 15 16 16 16 16 16 16 16 16 16 16 16 16 17 17 17 17 17 17 17
13 13 13 13 13 13 13 13 13 13 13 13 13 13 13 13 13 14 14 14 14 14 15 15 15 15 15 15 16 16 16 16 16 16 16 16 16 16 16 16 17 17 17
13 13 13 13 13 13 13 13 13 13 13 13 13 13 13 13 13 13 13 14 14 14 14 15 15 15 15 15 15 15 16 16 16 16 16 16 16 16 16 16 16 16 16
14 14 13 13 13 13 13 13 13 13 13 13 13 13 13 13 13 13 13 13 14 14 14 14 14 14 15 15 15 15 15 15 15 16 16 16 16 16 16 16 16 16 16
14 14 14 14 13 13 13 13 13 13 13 13 13 13 13 13 13 13 13 13 13 13 13 14 14 14 14 14 15 15 15 15 15 15 15 15 15 15 16 16 16 16 16
14 14 14 14 14 13 13 13 13 13 13 13 13 13 13 13 13 13 13 13 13 13 13 13 14 14 14 14 14 14 15 15 15 15 15 15 15 15 15 15 15 16 16
14 14 14 14 14 13 13 13 13 13 13 13 13 13 13 13 13 13 13 13 13 13 13 13 13 13 13 14 14 14 14 14 14 14 14 14 15 15 15 15 15 15 15
14 14 14 14 14 14 13 13 13 13 13 13 13 13 13 13 13 13 13 12 12 13 13 13 13 13 13 13 13 13 14 14 14 14 14 14 14 14 14 15 15 15 15
14 14 14 14 14 13 13 13 13 13 13 13 13 13 13 13 13 13 13 13 12 13 13 13 13 13 13 13 13 13 13 13 14 14 14 14 14 14 14 14 14 14 15
14 14 14 14 14 13 13 13 13 13 13 13 13 13 13 13 13 13 12 12 12 12 12 12 12 12 13 12 13 13 13 13 13 13 13 14 14 14 14 14 14 14 14
14 14 14 14 14 13 13 13 13 13 13 13 13 13 13 13 12 12 12 12 12 12 12 12 12 12 12 12 12 12 12 12 13 13 13 13 13 13 14 14 14 14 14
14 14 14 14 13 13 13 13 13 13 13 13 12 12 12 12 12 12 12 12 12 12 12 12 12 12 12 12 12 12 12 12 12 12 12 13 13 13 13 13 13 13 13
14 14 14 14 13 13 13 13 13 12 12 12 12 12 12 12 12 12 12 12 12 12 12 12 11 11 11 12 12 12 12 12 12 12 12 12 12 13 13 13 13 13 13
14 14 14 14 13 13 13 13 12 12 12 12 12 12 12 12 12 12 12 12 12 12 11 11 11 11 11 11 11 11 11 11 11 11 11 11 12 12 12 13 13 13 13
Wind_Speed
2 3 2 2 3 3 2 2 2 2 2 2 3 3 4 4 4 5 6 7 9 10 11 12 12 13 13 13 13 12 12 12 12 12 12 12 12 12 12 13 13 12 12
2 2 3 3 2 3 2 1 2 1 2 1 2 2 3 3 4 5 5 6 9 10 11 12 12 13 13 13 13 13 13 13 13 13 13 13 12 13 13 13 13 13 12
3 2 3 3 3 3 3 2 2 1 1 1 2 2 2 2 2 3 4 5 7 9 11 11 11 13 13 14 13 13 13 14 14 14 14 14 13 14 13 13 13 13 13
4 2 3 3 3 3 2 1 1 2 2 2 2 2 1 1 2 3 3 4 5 6 8 10 11 12 13 13 13 14 14 15 14 15 15 15 14 14 14 13 13 13 13
4 3 2 2 3 2 2 2 2 1 2 2 2 1 1 2 2 3 3 4 5 5 6 9 11 12 12 12 13 14 14 15 15 15 15 16 15 15 15 14 14 13 13
3 2 2 3 3 2 2 2 2 1 1 2 2 2 2 2 2 2 3 2 3 5 7 7 7 9 12 13 13 13 14 16 16 16 16 16 16 16 16 15 14 14 14
2 2 2 3 3 2 1 2 1 2 2 2 2 3 3 2 1 1 1 1 2 3 5 7 6 6 7 12 13 14 14 16 17 17 16 17 17 16 16 15 15 15 15
1 1 1 2 2 1 2 2 2 1 2 2 2 2 3 4 3 2 1 1 1 1 2 5 5 6 6 7 10 13 14 16 17 17 17 17 17 17 17 17 16 16 16
1 1 1 1 1 1 1 1 1 2 1 2 2 3 2 1 2 3 2 2 1 1 2 2 4 5 7 7 8 11 13 14 17 17 18 18 18 18 18 17 17 17 16
2 1 1 0 1 0 0 1 1 1 2 1 1 1 1 2 1 2 3 3 2 1 1 2 3 4 6 7 8 10 13 14 16 17 17 18 18 18 18 18 18 17 17
2 1 1 1 1 0 0 1 1 1 1 1 1 0 1 1 1 2 1 3 3 2 2 2 2 2 4 6 7 10 13 15 16 16 17 17 18 18 19 19 18 18 18
2 2 1 1 0 0 1 0 1 1 1 1 1 1 1 1 1 1 1 1 2 2 2 1 0 1 2 4 7 9 12 14 16 16 16 16 17 18 18 19 19 18 19
2 3 1 1 1 1 0 1 2 1 1 1 1 1 1 1 1 2 1 0 1 2 2 2 1 0 1 2 4 7 9 11 14 15 15 15 16 16 17 18 18 18 18
3 3 2 2 1 1 1 1 1 1 1 1 1 1 1 0 1 1 2 2 1 2 2 2 2 1 1 0 2 3 5 9 10 12 13 14 14 15 15 16 16 17 18
2 2 1 2 1 1 1 1 1 0 1 1 1 1 1 0 0 1 1 2 3 1 1 2 2 2 2 1 1 1 2 6 8 10 11 12 13 14 14 14 15 17 17
2 1 1 1 1 1 1 1 1 1 0 0 1 1 0 0 0 0 1 1 2 3 1 2 2 2 2 1 0 1 2 4 7 8 10 11 12 13 13 14 14 15 16
2 2 2 2 2 1 1 2 1 1 1 0 0 1 0 0 0 0 1 1 1 2 2 2 2 2 1 2 2 2 2 3 5 8 9 10 11 12 13 13 13 14 15
3 3 3 3 3 2 2 2 2 1 1 1 1 1 1 1 1 1 1 1 1 1 2 1 2 2 1 1 1 2 2 2 3 5 8 9 10 11 12 13 13 14 14
3 2 2 3 3 2 2 2 2 2 2 2 2 2 2 1 1 1 1 1 0 0 1 1 1 1 1 1 1 2 2 2 2 3 5 7 8 9 11 12 13 14 14
3 2 2 3 3 2 2 1 1 1 1 1 2 3 2 3 3 3 2 2 1 1 1 1 1 1 2 2 1 1 2 2 2 2 2 3 5 7 8 9 11 12 13
4 3 2 2 2 2 2 2 2 1 1 1 1 1 2 3 4 4 3 3 2 1 1 1 0 1 2 2 1 1 1 2 2 1 1 2 2 3 5 8 9 11 12
3 2 2 2 2 1 2 3 3 2 1 1 1 1 1 1 2 3 3 4 4 3 2 1 1 1 2 2 1 1 1 1 2 2 1 3 1 3 3 5 9 10 11
4 3 3 3 2 2 2 2 3 2 2 1 1 1 0 0 1 1 1 2 1 1 2 3 2 2 2 2 1 1 1 2 3 3 1 3 2 3 4 6 8 9 10
4 4 3 3 3 2 2 2 3 3 2 1 1 1 1 0 0 2 3 2 2 1 1 1 2 2 2 2 2 2 2 2 3 2 0 2 2 3 4 4 7 7 7
5 4 3 4 3 2 2 3 5 3 2 1 0 1 2 1 1 3 4 3 2 2 3 3 2 2 3 2 1 1 1 1 2 2 1 1 2 2 3 3 4 5 6
6 5 4 4 4 3 3 4 5 3 3 1 1 2 2 3 3 4 4 3 2 0 2 3 4 5 5 6 6 2 1 0 1 2 2 1 2 2 3 3 2 3 4
Wind_Direction
6 0 351 360 348 330 311 305 296 294 285 258 247 237 240 232 226 227 244 235 224 216 208 201 194 190 189 186 185 184 181 177 174 170 166 163 160 156 151 148 147 144 141
20 4 356 354 345 339 328 307 309 301 287 275 271 260 244 234 229 223 224 231 228 223 216 209 201 195 191 188 188 187 183 179 177 174 171 167 164 161 157 155 153 150 148
39 27 5 352 335 344 353 356 343 349 336 314 289 276 255 248 231 227 216 220 229 229 219 214 209 201 196 192 190 189 186 180 178 177 174 171 167 165 163 162 160 158 157
41 41 15 347 341 357 359 1 5 358 344 327 308 296 274 258 236 230 211 215 218 224 223 219 213 206 200 196 193 191 189 185 182 181 178 175 172 170 169 167 167 165 163
34 41 16 339 350 357 359 354 26 8 338 324 294 281 272 246 229 223 211 217 220 222 219 221 217 211 206 202 199 196 194 190 187 185 183 180 177 175 175 173 171 171 169
28 43 11 345 353 8 1 2 2 347 314 307 314 331 302 269 234 215 213 215 215 218 215 209 208 214 211 209 205 203 199 195 191 189 188 186 182 181 180 179 177 177 176
18 36 2 348 354 6 344 352 8 357 347 1 32 360 346 328 289 250 236 210 220 221 207 201 200 206 212 215 211 208 203 199 195 193 192 190 187 186 185 185 185 184 183
321 10 13 347 347 3 8 14 41 34 355 32 82 64 7 351 340 330 307 243 237 220 212 203 194 197 205 210 214 212 207 201 198 196 195 194 192 190 190 191 191 190 190
302 12 2 358 1 48 2 338 59 96 34 358 67 114 115 255 311 330 340 351 343 222 233 217 200 199 204 206 210 213 209 205 203 202 199 197 197 195 195 196 196 196 196
288 302 348 11 30 60 358 318 69 110 110 48 0 42 143 171 134 343 339 341 334 310 255 238 220 209 204 203 208 209 210 209 210 209 206 203 201 201 200 201 201 202 202
308 307 328 17 38 31 349 15 37 72 103 121 107 30 37 49 85 119 329 330 342 325 287 252 215 202 206 202 207 213 213 211 212 213 211 208 207 207 206 205 207 208 208
307 305 290 318 338 352 358 40 58 77 80 87 94 108 121 100 94 114 160 310 318 309 320 337 231 205 201 203 214 216 215 214 214 214 214 213 211 211 212 212 213 214 214
276 278 273 274 269 253 23 67 64 53 71 89 97 112 121 173 175 148 139 283 330 317 335 350 337 47 168 190 215 213 212 213 215 216 217 216 216 216 217 218 218 219 219
238 252 255 255 255 233 127 88 69 31 89 99 104 112 103 86 131 147 160 149 44 344 344 322 329 347 7 172 227 212 213 216 216 218 218 218 217 219 220 223 224 225 226
240 244 242 240 247 210 151 123 91 345 111 137 154 131 114 299 47 135 148 156 150 136 317 309 327 327 346 9 238 207 220 223 219 222 224 224 222 223 225 229 230 231 230
230 212 210 201 198 190 164 138 151 246 103 264 164 111 83 292 9 50 111 126 148 163 216 289 289 296 316 336 350 323 263 238 227 228 231 229 227 227 228 230 233 234 233
220 213 207 195 186 185 169 150 183 178 152 302 282 150 206 195 84 46 80 90 114 149 193 291 298 318 344 354 345 327 290 254 243 236 236 234 232 232 235 235 233 233 232
233 225 213 199 197 189 172 172 197 195 193 212 233 180 247 159 131 108 106 108 147 174 176 254 313 329 318 300 305 299 302 274 253 248 241 242 242 239 238 239 239 236 233
228 231 204 203 204 198 187 197 198 201 213 218 215 211 230 167 183 176 144 137 132 94 151 177 292 309 310 323 340 318 315 317 289 274 249 245 248 247 245 244 244 242 240
204 207 208 201 199 192 181 191 184 184 210 231 224 220 217 194 196 194 181 174 149 94 87 110 292 320 315 315 356 330 326 325 310 314 290 262 263 260 256 253 250 246 243
199 192 184 196 201 191 204 195 190 180 198 255 263 238 226 204 195 184 169 172 156 137 109 114 322 348 332 344 322 300 292 308 298 300 308 286 272 266 266 261 256 251 246
193 173 177 183 195 224 211 184 169 175 185 184 235 279 268 214 194 174 157 150 153 158 170 168 183 237 286 278 272 283 290 348 308 302 313 281 254 265 266 261 256 253 250
187 182 185 176 189 237 226 186 170 158 166 184 194 218 235 128 162 141 141 119 99 127 162 167 177 228 248 247 227 260 235 226 244 270 292 275 271 266 268 275 268 259 255
186 190 189 185 189 237 232 194 153 127 124 150 179 184 172 219 155 143 126 100 59 21 336 174 186 228 242 241 217 224 239 264 280 293 253 267 283 270 276 277 277 273 265
186 191 189 185 184 233 221 171 143 125 114 71 31 129 160 167 164 133 125 118 68 3 21 62 84 45 18 11 60 76 35 32 322 312 348 276 292 296 286 279 288 294 288
186 184 184 184 182 201 191 166 150 136 131 115 61 53 96 114 116 125 134 137 128 342 26 33 33 27 24 24 35 60 113 116 282 303 326 338 312 336 313 297 304 321 317
Height
1505 1504 1503 1502 1501 1501 1500 1500 1500 1500 1500 1501 1502 1503 1504 1506 1508 1509 1511 1512 1513 1515 1516 1517 1518 1519 1521 1522 1524 1525 1527 1529 1530 1532 1534 1536 1537 1539 1540 1541 1542 1543 1544
1504 1503 1502 1501 1500 1499 1499 1498 1499 1499 1499 1499 1500 1501 1502 1504 1505 1507 1509 1510 1512 1513 1514 1516 1517 1518 1519 1521 1523 1524 1526 1528 1530 1532 1534 1535 1537 1539 1540 1542 1543 1544 1545
1503 1501 1500 1499 1498 1498 1497 1497 1497 1497 1497 1497 1498 1499 1500 1502 1503 1505 1506 1508 1510 1511 1513 1514 1515 1517 1518 1520 1521 1523 1525 1527 1529 1531 1533 1535 1537 1539 1540 1542 1543 1544 1546
1501 1500 1499 1498 1497 1496 1495 1495 1495 1495 1495 1496 1496 1497 1499 1500 1502 1503 1504 1506 1508 1510 1511 1512 1513 1515 1516 1518 1520 1522 1524 1526 1528 1530 1532 1534 1536 1538 1540 1542 1543 1545 1546
1500 1499 1498 1496 1495 1495 1494 1494 1494 1494 1494 1494 1495 1496 1497 1498 1500 1501 1502 1504 1506 1508 1509 1510 1512 1513 1515 1517 1519 1521 1523 1525 1527 1529 1531 1533 1535 1537 1539 1541 1543 1544 1546
1499 1498 1497 1496 1495 1494 1493 1493 1493 1493 1493 1493 1493 1494 1495 1497 1498 1500 1501 1502 1504 1505 1507 1509 1510 1512 1513 1515 1517 1519 1521 1524 1526 1528 1530 1532 1534 1536 1538 1540 1542 1544 1545
1498 1497 1496 1495 1494 1493 1492 1492 1492 1492 1492 1492 1492 1493 1494 1495 1497 1498 1499 1501 1502 1503 1505 1507 1508 1510 1512 1514 1516 1518 1520 1522 1524 1526 1528 1531 1533 1535 1537 1539 1541 1543 1544
1498 1497 1496 1494 1493 1493 1492 1491 1491 1491 1491 1491 1492 1492 1493 1495 1495 1496 1498 1499 1500 1502 1503 1505 1506 1508 1510 1512 1514 1516 1518 1520 1522 1525 1527 1529 1531 1533 1536 1538 1540 1541 1543
1498 1497 1495 1494 1493 1492 1492 1491 1491 1491 1491 1491 1492 1493 1493 1494 1494 1496 1496 1497 1498 1500 1501 1503 1504 1506 1508 1510 1512 1514 1516 1518 1520 1523 1525 1527 1529 1531 1534 1536 1538 1540 1542
1498 1497 1495 1494 1493 1492 1491 1491 1491 1491 1491 1491 1492 1492 1493 1494 1494 1494 1496 1496 1497 1498 1500 1501 1502 1504 1506 1508 1510 1512 1514 1516 1519 1521 1523 1525 1527 1529 1531 1533 1536 1538 1539
1498 1497 1495 1494 1493 1492 1491 1491 1490 1490 1490 1491 1491 1492 1493 1493 1494 1494 1495 1496 1496 1497 1498 1499 1501 1502 1504 1506 1507 1510 1512 1514 1516 1519 1521 1523 1525 1527 1529 1531 1533 1535 1537
1498 1497 1496 1495 1493 1492 1491 1491 1490 1490 1490 1490 1491 1491 1492 1493 1493 1494 1494 1495 1495 1496 1497 1498 1499 1500 1502 1503 1505 1507 1509 1511 1514 1516 1518 1520 1522 1524 1526 1528 1530 1532 1534
1498 1497 1496 1495 1494 1493 1492 1491 1490 1490 1490 1490 1491 1491 1492 1492 1493 1493 1494 1494 1495 1495 1496 1497 1498 1499 1500 1501 1503 1505 1507 1509 1511 1513 1515 1517 1519 1521 1523 1525 1527 1529 1530
1498 1497 1496 1495 1494 1493 1492 1491 1491 1490 1490 1490 1490 1491 1491 1492 1492 1493 1493 1494 1494 1495 1495 1496 1496 1497 1498 1499 1501 1502 1504 1506 1508 1510 1512 1514 1516 1518 1520 1522 1524 1525 1527
1497 1497 1496 1495 1494 1493 1492 1492 1491 1490 1490 1490 1490 1490 1491 1491 1491 1492 1492 1493 1494 1494 1494 1495 1495 1496 1497 1498 1499 1500 1501 1503 1504 1506 1508 1510 1512 1514 1516 1518 1520 1521 1523
1497 1497 1496 1495 1494 1493 1493 1492 1491 1491 1490 1490 1490 1490 1490 1490 1490 1491 1491 1492 1492 1493 1493 1493 1494 1494 1495 1496 1496 1498 1499 1500 1502 1503 1505 1506 1508 1510 1512 1513 1515 1517 1519
1496 1496 1495 1495 1494 1493 1493 1492 1491 1491 1490 1490 1489 1489 1489 1489 1489 1489 1490 1490 1491 1491 1491 1492 1492 1493 1493 1494 1494 1495 1496 1497 1498 1499 1501 1502 1504 1505 1507 1509 1510 1512 1514
1495 1495 1494 1494 1494 1493 1492 1492 1491 1490 1490 1489 1489 1489 1488 1488 1488 1488 1489 1489 1490 1490 1491 1490 1491 1491 1491 1491 1492 1492 1493 1494 1495 1496 1497 1498 1499 1501 1502 1504 1505 1507 1508
1494 1493 1493 1493 1492 1492 1491 1491 1490 1490 1489 1489 1488 1488 1487 1487 1487 1487 1488 1488 1488 1489 1489 1489 1489 1489 1489 1489 1489 1490 1490 1491 1492 1493 1494 1495 1496 1497 1498 1499 1500 1502 1503
1492 1492 1491 1491 1491 1490 1490 1490 1489 1489 1488 1488 1488 1487 1487 1486 1486 1486 1487 1487 1487 1487 1488 1487 1487 1487 1487 1487 1487 1487 1488 1488 1489 1490 1490 1491 1492 1493 1494 1495 1496 1497 1498
1490 1490 1490 1489 1489 1489 1488 1488 1488 1487 1487 1487 1486 1486 1486 1486 1486 1486 1486 1486 1486 1486 1486 1486 1486 1486 1486 1485 1485 1485 1486 1486 1486 1487 1487 1488 1488 1489 1490 1490 1491 1492 1493
1487 1487 1487 1487 1487 1486 1486 1486 1486 1485 1485 1485 1485 1485 1485 1485 1485 1485 1485 1485 1485 1484 1484 1484 1484 1484 1484 1484 1484 1484 1483 1483 1483 1484 1484 1484 1484 1485 1485 1486 1486 1487 1488
1485 1485 1485 1485 1484 1484 1484 1484 1483 1483 1483 1483 1483 1483 1483 1483 1483 1483 1484 1483 1483 1483 1483 1483 1483 1483 1483 1483 1482 1482 1481 1481 1481 1481 1481 1480 1481 1481 1481 1481 1482 1483 1483
1482 1482 1482 1482 1482 1482 1481 1481 1481 1481 1481 1480 1481 1481 1481 1481 1482 1482 1482 1482 1482 1482 1481 1481 1481 1481 1481 1481 1480 1480 1479 1479 1479 1479 1478 1477 1477 1477 1477 1478 1478 1478 1479
1479 1479 1479 1479 1479 1479 1479 1478 1478 1478 1478 1478 1478 1478 1479 1479 1479 1480 1480 1480 1480 1480 1480 1480 1480 1479 1479 1479 1478 1478 1477 1476 1476 1476 1475 1475 1474 1473 1473 1474 1474 1474 1474
1475 1476 1476 1476 1476 1476 1476 1476 1476 1476 1476 1476 1476 1476 1476 1477 1477 1477 1478 1478 1478 1478 1478 1478 1478 1478 1477 1477 1476 1476 1475 1474 1473 1473 1472 1472 1471 1471 1469 1469 1469 1469 1469